#timestamp,LO_Frequency,Hit,StdDev 
1621972815.3,286046999.3,N
1621972835.1,286046995.5,N
1621972855.8,286046995.2,N
1621972875.7,286046998.0,N
1621972895.5,286046997.9,N
1621972915.4,286046997.4,N
1621972935.2,286046997.1,N
1621972955.0,286046998.0,N
1621972955.9,286046998.0,N
1621972975.8,286046997.2,N
1621972995.6,286046997.5,N
1621973015.4,286046997.2,N
1621973035.3,286046996.7,N
1621973055.1,286046998.0,N
1621973075.9,286046999.6,N
1621973095.7,286047002.6,N
1621973115.5,286047004.4,N
1621973135.4,286047003.4,N
1621973155.2,286047002.8,N
1621973175.0,286047000.4,N
1621973175.9,286047000.4,N
1621973195.8,286047000.2,N
1621973215.6,286047001.4,N
1621973235.5,286047003.0,N
1621973255.3,286047005.4,N
1621973275.1,286047004.7,N
1621973295.9,286047006.4,N
1621973315.7,286047007.3,N
1621973335.5,286047007.0,N
1621973355.4,286047006.5,N
1621973375.2,286047011.9,Y
1621973395.1,286047003.3,P
1621973396.0,286047003.3,N
1621973415.8,286047005.5,P
1621973435.6,286047004.6,N
1621973455.5,286047005.2,Y
1621973475.3,286047002.5,P
1621973495.2,286047000.7,N
1621973515.9,286047000.1,N
1621973535.7,286047000.9,N
1621973555.6,286046999.5,N
1621973575.4,286046997.1,N
1621973595.2,286047000.8,N
1621973615.1,286046999.8,N
1621973616.0,286046999.8,N
1621973635.8,286046999.5,N
1621973655.7,286046997.9,N
1621973675.5,286046999.6,N
1621973695.3,286046996.6,N
1621973715.2,286046997.5,N
1621973735.0,286046998.7,N
1621973735.9,286046998.7,N
1621973755.7,286047001.5,N
1621973775.6,286047002.5,N
1621973795.4,286047000.6,N
1621973815.3,286047000.5,N
1621973835.1,286047001.3,N
1621973836.0,286047001.3,N
1621973855.8,286047001.4,N
1621973875.7,286047003.0,N
1621973895.5,286047007.1,Y
1621973915.4,286047005.9,P
1621973935.2,286047007.5,N
1621973955.0,286047004.3,N
1621973955.9,286047004.3,N
1621973975.8,286047003.4,N
1621973995.6,286047004.0,N
1621974015.4,286047006.0,N
1621974035.3,286047003.3,N
1621974055.1,286047004.5,N
1621974075.9,286047007.6,Y
1621974095.7,286046998.8,P
1621974115.5,286046997.3,N
1621974135.4,286047000.1,N
1621974155.2,286047003.5,N
1621974175.0,286047001.5,N
1621974175.9,286047001.5,N
1621974195.8,286047002.3,N
1621974215.6,286047001.4,N
1621974235.5,286047002.9,N
1621974255.3,286047001.9,N
1621974275.1,286047002.2,N
1621974295.9,286047002.4,N
1621974315.7,286047000.5,N
1621974335.5,286047002.4,N
1621974355.4,286047002.6,N
1621974375.2,286047004.4,N
1621974395.1,286047002.0,N
1621974396.0,286047002.0,N
1621974415.8,286047002.2,N
1621974435.6,286047001.4,N
1621974455.5,286047004.9,Y
1621974475.3,286047003.9,P
1621974495.2,286047003.0,N
1621974515.9,286047003.1,P
1621974535.7,286047003.7,Y
1621974555.6,286047000.1,P
1621974575.4,286047001.9,N
1621974595.3,286047005.4,P
1621974615.1,286047005.1,N
1621974616.0,286047005.1,N
1621974635.8,286047005.8,N
1621974655.7,286047006.0,N
1621974675.5,286047005.4,N
1621974695.3,286047002.0,N
1621974715.2,286047001.7,N
1621974735.0,286047004.4,N
1621974735.9,286047011.9,Y
1621974755.8,286047000.5,P
1621974775.6,286046999.2,N
1621974795.4,286046998.9,N
1621974815.3,286047000.6,N
1621974835.1,286047000.5,N
1621974855.9,286047001.3,N
1621974875.7,286046999.8,N
1621974895.5,286047003.5,N
1621974915.4,286047006.0,Y
1621974935.2,286047002.6,P
1621974955.1,286047003.6,P
1621974956.0,286047003.6,P
1621974975.8,286047003.3,N
1621974995.6,286047004.6,Y
1621975015.5,286047006.0,P
1621975035.3,286047005.1,P
1621975055.1,286047008.8,P
1621975075.9,286047007.6,Y
1621975095.7,286046998.8,P
1621975115.6,286046997.1,N
1621975135.4,286046997.4,N
1621975155.2,286046995.5,N
1621975175.1,286046997.4,N
1621975176.0,286046997.4,N
1621975195.8,286046995.8,N
1621975215.7,286046992.9,N
1621975235.5,286046991.7,N
1621975255.3,286046996.3,N
1621975275.2,286046994.4,N
1621975295.0,286046994.5,N
1621975295.9,286046994.5,N
1621975315.8,286046996.2,N
1621975335.6,286046996.1,N
1621975355.4,286046999.0,N
1621975375.3,286047000.7,N
1621975395.1,286046996.7,N
1621975415.8,286046999.0,N
1621975435.7,286046998.6,N
1621975455.5,286047001.1,N
1621975475.4,286046998.1,N
1621975495.2,286046999.4,N
1621975515.0,286046998.9,N
1621975515.9,286046998.9,N
1621975535.8,286047001.2,N
1621975555.6,286046999.0,N
1621975575.5,286046999.0,N
1621975595.3,286046998.9,N
1621975615.1,286047002.8,N
1621975635.9,286047002.3,N
1621975655.7,286047002.7,N
1621975675.5,286047001.2,N
1621975695.4,286046996.6,N
1621975715.2,286046998.1,N
1621975735.1,286047002.2,N
1621975736.0,286047002.2,N
1621975755.8,286047000.7,N
1621975775.6,286047002.5,N
1621975795.5,286047000.5,N
1621975815.3,286047001.2,N
1621975835.1,286047002.8,N
1621975855.9,286046999.9,N
1621975875.7,286047002.5,N
1621975895.6,286047001.5,N
1621975915.4,286047005.6,Y
1621975935.2,286047006.0,P
1621975955.1,286047005.9,N
1621975956.0,286047005.9,N
1621975975.8,286047001.7,N
1621975995.7,286047003.4,N
1621976015.5,286047003.3,N
1621976035.3,286047003.5,N
1621976055.2,286047002.2,N
1621976075.0,286047002.3,N
1621976075.9,286047002.3,N
1621976095.7,286046999.8,N
1621976115.6,286047006.0,Y
1621976135.4,286047000.9,P
1621976155.3,286046998.2,N
1621976175.1,286046998.3,N
1621976195.8,286046997.3,N
1621976215.7,286046999.7,N
1621976235.5,286047001.9,N
1621976255.4,286047002.7,N
1621976275.2,286047001.7,N
1621976295.0,286047003.3,N
1621976295.9,286047003.3,N
1621976315.8,286047003.8,N
1621976335.6,286047001.9,N
1621976355.4,286047003.5,N
1621976375.3,286047001.7,N
1621976395.1,286047005.3,N
